Location: ????????
(56.0167°N, 38.0333°E)
Time: 13:15:06
(UTC+00:00)

ATLAS 3B R/B - Pass Details

Date: 19 May 2025
Orbit: 935 x 1258 km, 63.8° (Epoch: 19 June)

Event Time Altitude Azimuth Distance (km) Brightness Sun altitude
Rises 23:18:28 0° 256° (WSW) 4,084 5.4 -10.3°
Reaches altitude 10° 23:21:14 10° 261° (W) 3,157 4.8 -10.1°
Maximum altitude 23:28:48 57° 340° (NNW) 1,444 3.6 -9.6°
Drops below altitude 10° 23:36:36 10° 58° (ENE) 3,249 6.3 -9.0°
Sets 23:39:30 0° 63° (ENE) 4,209 6.9 -8.8°
